Simultaneous Nadir Overpasses (SNOs) Predictions

Prediction of SNOs between GOES-16 and AQUA Satellite Orbit:

Table of predicted SNOs for the next 14.0 days since TLE Epoch: 3/9/2018
Index Date Time (GOES-16) GOES-16 Lat,Lon AQUA Lat,Lon Distance(km) Time Diff (sec)
1 03/10/2018 06:51:12 0.02, -75.19 0.69, -78.30 353.85 80
2 03/12/2018 06:39:02 0.02, -75.22 0.08, -75.34 15.46 80
3 03/14/2018 06:24:14 0.02, -75.25 -0.60, -72.40 324.15 80
4 03/14/2018 18:45:37 -0.03, -75.27 -0.54, -77.59 263.42 80
5 03/16/2018 18:36:07 -0.03, -75.31 0.09, -74.63 76.79 80
6 03/18/2018 18:23:58 -0.02, -75.36 0.78, -71.69 417.39 80
7 03/19/2018 06:45:14 0.03, -75.36 0.32, -76.85 169.25 80
8 03/21/2018 06:30:24 0.02, -75.41 -0.31, -73.90 171.65 80
9 03/21/2018 18:51:48 -0.03, -75.43 -0.80, -79.09 415.97 80
10 03/23/2018 18:39:38 -0.03, -75.48 -0.15, -76.14 74.70 80




NCC Satellite Simultaneous Nadir Overpasses (SNOs) Prediction Service
